Weather observations for the past three days for
Cold Bay, Cold Bay Airport
Metric (Imperial)
Date Time (akdt) Wind (kph) Vis. (km) Weather Sky Cond. Temperature (ºC) Relative Humidity Wind Chill (°C) Heat Index (°C) Pressure Precipitation (cm)
Air Dwpt 6 hour altimeter (cm) sea level (mb) 1 hr 3 hr 6 hr
Max. Min.
16 02:53 SE 28 16.09 Fair CLR 6.1 3.3 82% 2 76.61 1021.2
16 01:53 SE 33 16.09 Fair and Breezy CLR 6.1 3.3 82% 2 76.61 1021.4
16 00:53 SE 28 G 44 16.09 Fair CLR 6.1 3.3 82% 2 76.61 1021.2
15 23:53 S 33 16.09 Fair and Breezy CLR 6.7 3.3 79% 2 76.58 1020.9
15 22:53 SE 37 G 54 16.09 Fair and Breezy CLR 7.2 3.9 80% 3 76.56 1020.7
15 21:53 S 44 16.09 Fair and Windy CLR 8.9 3.9 12.2 8.9 71% 5 76.56 0.0
15 20:53 S 39 G 54 16.09 Fair and Breezy CLR 10 3.9 66% 6 76.58 1020.9
15 19:53 SE 43 G 59 16.09 Fair and Windy CLR 10 3.9 66% 6 76.56 1020.8
15 18:53 SE 41 G 56 16.09 Fair and Breezy CLR 11.1 4.4 64% 76.56 1020.6
15 17:53 S 39 G 56 16.09 Fair and Breezy CLR 11.7 4.4 61% 76.56 1020.8
15 16:53 SE 39 G 61 16.09 Fair and Breezy CLR 11.1 4.4 64% 76.56 1020.7
15 15:53 SE 46 G 65 16.09 Fair and Windy CLR 11.7 4.4 12.2 9.4 61% 76.61 1021.5
15 14:53 SE 41 G 59 16.09 Fair and Breezy CLR 12.2 4.4 59% 76.63 1021.6
15 13:53 SE 48 G 69 16.09 Light Rain and Windy CLR 11.1 4.4 64% 76.63 1021.6
15 12:53 SE 46 G 61 16.09 Fair and Windy CLR 11.1 4.4 64% 76.61 1021.3
15 11:53 SE 41 G 54 16.09 Fair and Breezy CLR 10 3.9 66% 6 76.61 1021.4
15 10:54 SE 39 G 54 12.87 Partly Cloudy and Breezy SCT017 10 4.4 68% 6 76.63 1021.7
15 08:53 SE 43 G 57 16.09 Overcast and Windy OVC018 8.9 4.4 74% 5 76.63 1021.7
15 07:53 SE 33 G 50 16.09 Partly Cloudy and Breezy SCT020 7.8 3.9 77% 4 76.63 1021.6
15 06:53 SE 28 16.09 Overcast OVC021 7.2 3.9 80% 3 76.63 1021.8
15 05:53 SE 33 G 43 16.09 Overcast and Breezy OVC020 7.2 4.4 83% 3 76.66 1022.1
15 04:53 SE 35 16.09 Mostly Cloudy and Breezy BKN022 7.2 5 86% 3 76.68 1022.2
15 03:53 SE 33 G 46 16.09 Mostly Cloudy and Breezy BKN021 7.8 5.6 9.4 7.2 86% 4 76.68 1022.2
15 02:53 SE 26 16.09 Fair CLR 7.2 5.6 90% 4 76.68 1022.3
15 01:53 SE 28 16.09 Fair CLR 7.2 5 86% 3 76.68 1022.4
15 00:53 SE 28 G 43 16.09 Fair CLR 7.2 5 86% 3 76.71 1022.8
14 23:53 SE 19 16.09 Fair CLR 7.2 3.9 80% 4 76.73 1023.0
14 22:53 SE 26 16.09 Partly Cloudy SCT026 8.3 3.9 74% 5 76.73 1023.0
14 21:53 SE 30 16.09 Fair CLR 9.4 4.4 13.3 9.4 71% 6 76.73 1022.9
14 20:53 SE 33 16.09 Fair and Breezy CLR 10.6 4.4 66% 76.73 1023.1
14 19:53 SE 35 16.09 Fair and Breezy CLR 11.1 5 66% 76.71 1022.8
14 18:53 S 37 16.09 Fair and Breezy CLR 12.2 5 62% 76.71 1022.8
14 17:53 SE 31 G 46 16.09 Fair CLR 12.8 5 59% 76.71 1022.7
14 16:53 SE 39 G 46 16.09 Fair and Breezy CLR 12.8 5 59% 76.71 1022.8
14 15:53 SE 39 G 57 16.09 Fair and Breezy CLR 12.8 5 13.3 10 59% 76.73 1023.1
14 14:53 SE 46 16.09 Fair and Windy CLR 12.2 4.4 59% 76.76 1023.3
14 13:53 SE 41 G 56 16.09 Fair and Breezy CLR 12.2 5 62% 76.76 1023.2
14 12:53 SE 37 G 52 16.09 Fair and Breezy CLR 12.8 5 59% 76.76 1023.4
14 10:53 SE 37 16.09 Fair and Breezy CLR 11.7 5 64% 76.76 1023.4
14 09:53 SE 31 G 46 16.09 Fair CLR 10 5 10 6.7 71% 7 76.78 1023.7
14 08:53 SE 26 16.09 Fair CLR 8.9 4.4 74% 6 76.78 1023.8
14 07:53 SE 28 16.09 Mostly Cloudy FEW017 BKN022 8.3 5 80% 5 76.78 1023.8
14 06:53 SE 31 16.09 Mostly Cloudy BKN020 7.8 4.4 79% 4 76.78 1023.8
14 05:53 SE 26 16.09 Overcast OVC021 7.2 4.4 83% 4 76.81 1024.1
14 04:53 SE 30 16.09 Mostly Cloudy BKN019 7.2 4.4 83% 3 76.81 1024.2
14 03:53 SE 41 16.09 Overcast and Breezy OVC018 7.2 4.4 7.8 6.7 83% 3 76.84 1024.4
14 02:53 SE 43 G 57 16.09 Mostly Cloudy and Windy BKN016 6.7 3.9 83% 2 76.84 1024.4
14 01:53 SE 39 G 48 16.09 Overcast and Breezy OVC013 6.7 4.4 85% 2 76.86 1024.5
14 00:53 SE 31 G 48 16.09 Overcast OVC010 7.2 4.4 83% 3 76.84 1024.3
13 23:53 SE 33 G 48 16.09 Overcast and Breezy OVC012 7.2 4.4 83% 3 76.81 1023.9
13 22:53 SE 35 G 48 16.09 Overcast and Breezy OVC014 7.2 4.4 83% 3 76.81 1023.9
13 21:53 SE 31 G 48 16.09 Mostly Cloudy BKN016 7.8 5 12.2 7.8 83% 4 76.78 1023.9
13 20:53 SE 39 G 56 16.09 Overcast and Breezy OVC015 8.9 5 77% 5 76.78 1023.8
13 19:53 S 46 G 57 16.09 Fair and Windy CLR 10 5.6 74% 6 76.78 1023.7
13 18:53 S 41 G 54 16.09 Fair and Breezy CLR 11.1 5 66% 76.78 1023.6
13 17:53 S 39 16.09 A Few Clouds and Breezy FEW018 11.1 5 66% 76.78 1023.6
13 16:53 S 35 G 56 16.09 A Few Clouds and Breezy FEW016 11.7 5 64% 76.78 1023.7
13 15:53 S 39 G 56 16.09 Mostly Cloudy and Breezy BKN015 11.1 5.6 11.7 8.3 69% 76.81 1024.2
13 14:53 S 31 G 50 16.09 Mostly Cloudy BKN014 BKN019 11.7 5.6 66% 76.81 1024.1
13 13:53 S 35 G 50 16.09 Partly Cloudy and Breezy SCT016 10.6 5.6 71% 76.81 1024.1
13 12:53 S 39 16.09 Mostly Cloudy and Breezy FEW013 BKN020 10.6 5.6 71% 76.81 1024.0
13 11:53 S 35 16.09 Partly Cloudy and Breezy FEW014 SCT019 10 5.6 74% 7 76.81 1024.2
13 10:53 S 31 16.09 Partly Cloudy SCT019 9.4 5 74% 6 76.78 1023.8
13 09:53 S 30 16.09 Fair CLR 8.3 5.6 8.9 4.4 83% 5 76.78 1023.6
13 08:53 S 28 16.09 A Few Clouds FEW007 7.2 5 86% 3 76.78 1023.6
13 07:53 W 6 16.09 Partly Cloudy SCT003 5 4.4 96% 76.76 1023.6
13 06:53 S 11 16.09 Overcast OVC004 4.4 3.9 97% 2 76.73 1023.2
13 06:00 SE 9 9.66 Fog/Mist OVC002 5 4.4 96% 3 76.73 1023.0
13 04:53 SE 7 16.09 Overcast OVC005 5.6 3.9 89% 4 76.71 1022.9
Date Time (akdt) Wind (kph) Vis. (km) Weather Sky Cond. Air Dwpt Max. Min. Relative Humidity Wind Chill (°C) Heat Index (°C) altimeter (cm) sea level (mb) 1 hr 3 hr 6 hr
6 hour
Temperature (ºC) Pressure Precipitation (cm)